Location: Shepherdstown, WV
(39.4326°N, 77.8042°W)
Time: 06:38:15
(UTC-04:00)

SR - Pass Details

Date: 11 August 2021
Orbit: 581 x 874 km, 66.7° (Epoch: 24 September)

Event Time Altitude Azimuth Distance (km) Brightness Sun altitude
Rises 11:52:45 0° 348° (NNW) 3,078 ? 59.5°
Reaches altitude 10° 11:57:34 10° 30° (NNE) 2,065 ? 60.1°
Maximum altitude 11:58:16 10° 39° (NE) 2,031 ? 60.2°
Drops below altitude 10° 11:58:59 10° 48° (NE) 2,039 ? 60.3°
Sets 12:03:29 0° 91° (E) 2,870 ? 60.9°
